Home   Weather   Helsinki   Past weeks

Flag for Finland Past Weather in Helsinki, Finland — Yesterday and Last 2 Weeks

43 °F

Partly sunny.

Feels Like: 36 °F
Forecast: 41 / 42 °F
Wind: 14 mph from Southeast

Location: Helsinki Malmi Airport

Current Time: Oct 23, 2016 at 5:20:28 PM

Latest Report: Oct 23, 2016 at 4:50 PM

Visibility: N/A

Pressure: 30.54 "Hg

Humidity: 66%

Dew Point: 32 °F

Location of HelsinkiLocation

Past Weather in Helsinki — Graph


Helsinki Temperature Yesterday

Maximum temperature yesterday: 41 °F (at 10:20 PM)
Minimum temperature yesterday: 36 °F (at 5:50 AM)
Average temperature yesterday: 38 °F

High & Low Weather Summary for the Past Weeks

High50 °F (Oct 8, 4:20 PM)100% (Oct 13, 11:20 PM)30.69 "Hg (Oct 13, 11:20 PM)
Low25 °F (Oct 19, 6:50 AM)54% (Oct 8, 4:20 PM)30.33 "Hg (Oct 19, 2:50 AM)
Average40 °F79%30.52 "Hg
* Reported Oct 8 4:20 PM — Oct 23 4:20 PM, Helsinki, Weather by CustomWeather, © 2016

Note: Actual official high and low records may vary slightly from our data, if they occured in-between our weather recording intervals... More about our weather records


Helsinki Weather History for the Previous 24 Hours

Scroll right to see more
Time TempWeatherWind HumidityBarometerVisibility
4:20 PM
Sun, Oct 23
43 °FPartly sunny.14 mph66%30.54 "HgN/A
3:50 PM43 °FPartly sunny.14 mph71%30.54 "HgN/A
3:20 PM43 °FPartly sunny.15 mph71%30.54 "HgN/A
2:50 PM43 °FPartly sunny.18 mph71%30.54 "HgN/A
2:20 PM43 °FPartly sunny.18 mph71%30.54 "HgN/A
1:50 PM43 °FPartly sunny.16 mph71%30.54 "HgN/A
1:20 PM43 °FPartly sunny.17 mph71%30.54 "HgN/A
12:50 PM43 °FPartly sunny.17 mph71%30.54 "HgN/A
12:20 PM43 °FPartly sunny.17 mph71%30.54 "HgN/A
11:50 AM43 °FPartly sunny.16 mph71%30.54 "HgN/A
11:20 AM43 °FPartly sunny.16 mph76%30.54 "HgN/A
10:50 AM43 °FPartly sunny.16 mph76%30.54 "HgN/A
10:20 AM43 °FPartly sunny.14 mph76%30.54 "HgN/A
9:50 AM43 °FPartly sunny.15 mph76%30.54 "HgN/A
9:20 AM43 °FPartly sunny.17 mph76%30.51 "HgN/A
8:50 AM43 °FPartly sunny.14 mph76%30.51 "HgN/A
8:20 AM43 °FPassing clouds.14 mph76%30.51 "HgN/A
7:50 AM41 °FOvercast.14 mph81%30.51 "HgN/A
7:20 AM41 °FSprinkles. Overcast.13 mph87%30.51 "HgN/A
6:50 AM41 °FDrizzle. Overcast.12 mph87%30.51 "HgN/A
6:20 AM41 °FDrizzle. Overcast.15 mph81%30.51 "HgN/A
5:50 AM41 °FOvercast.16 mph81%30.51 "HgN/A
5:20 AM41 °FOvercast.16 mph81%30.51 "HgN/A
4:50 AM41 °FOvercast.14 mph76%30.51 "HgN/A
4:20 AM41 °FMostly cloudy.12 mph76%30.51 "HgN/A
3:50 AM41 °FOvercast.14 mph76%30.54 "HgN/A
3:20 AM41 °FMostly cloudy.17 mph76%30.54 "HgN/A
2:50 AM41 °FMostly cloudy.17 mph76%30.54 "HgN/A
2:20 AM41 °FMostly cloudy.16 mph76%30.54 "HgN/A
1:50 AM41 °FOvercast.17 mph76%30.54 "HgN/A
1:20 AM41 °FOvercast.16 mph76%30.54 "HgN/A
12:50 AM41 °FOvercast.16 mph76%30.54 "HgN/A
12:20 AM41 °FOvercast.14 mph70%30.54 "HgN/A
11:50 PM
Sat, Oct 22
41 °FOvercast.12 mph70%30.54 "HgN/A
11:20 PM41 °FOvercast.15 mph66%30.54 "HgN/A
10:50 PM41 °FOvercast.14 mph66%30.54 "HgN/A
10:20 PM41 °FOvercast.16 mph61%30.54 "HgN/A
9:50 PM39 °FOvercast.16 mph65%30.54 "HgN/A
9:20 PM39 °FOvercast.15 mph65%30.54 "HgN/A
8:50 PM39 °FPassing clouds.14 mph65%30.54 "HgN/A
8:20 PM39 °FPassing clouds.15 mph65%30.54 "HgN/A
7:50 PM39 °FPassing clouds.15 mph65%30.54 "HgN/A
7:20 PM39 °FPassing clouds.15 mph65%30.54 "HgN/A
6:50 PM39 °FPassing clouds.14 mph65%30.54 "HgN/A
6:20 PM39 °FPassing clouds.17 mph65%30.51 "HgN/A
5:50 PM37 °FPassing clouds.13 mph70%30.51 "HgN/A
5:20 PM37 °FPartly sunny.13 mph70%30.51 "HgN/A
Weather by CustomWeather, © 2016

See weather overviewHow to use our weather pages